Location: Ashton River Estates
(39.1762°N, 77.0261°W)
Time: 23:26:54
(UTC+00:00)

USA 307 - Pass Details

Date: 29 October 2020
Orbit: 569 x 579 km, 54.0° (Epoch: 30 November)

Event Time Altitude Azimuth Distance (km) Brightness Sun altitude
Rises 23:26:58 0° 317° (NW) 2,787 7.0 -15.4°
Reaches altitude 10° 23:29:23 10° 326° (NW) 1,884 5.9 -15.9°
Maximum altitude 23:33:21 35° 33° (NNE) 929 3.6 -16.7°
Enters shadow 23:34:17 31° 62° (ENE) 1,006 3.6 -16.9°
